Radiation Dose at Monitoring Post of Fukushima Daini Nuclear Power Station
Date,Time,MP-1(microSv/h),MP-2(microSv/h),MP-3(microSv/h),MP-4(microSv/h),MP-5(microSv/h),MP-6(microSv/h),MP-7(microSv/h),Wind Direction,Wind Velocity(m/s),Rain
2020/03/28,00:00,0.185,0.169,0.278,0.253,0.260,0.141,0.086,south,6.0,No
2020/03/28,00:10,0.183,0.168,0.276,0.255,0.259,0.143,0.085,south,6.2,No
2020/03/28,00:20,0.184,0.168,0.278,0.254,0.260,0.142,0.086,south,6.0,No
2020/03/28,00:30,0.183,0.169,0.275,0.254,0.259,0.142,0.086,south-southwest,6.4,No
2020/03/28,00:40,0.184,0.168,0.278,0.253,0.262,0.142,0.086,south-southwest,6.6,No
2020/03/28,00:50,0.184,0.169,0.275,0.254,0.260,0.143,0.086,south-southwest,6.4,No
2020/03/28,01:00,0.185,0.168,0.277,0.254,0.262,0.142,0.087,south-southwest,5.9,No
2020/03/28,01:10,0.184,0.169,0.277,0.254,0.261,0.143,0.086,south-southwest,5.9,No
2020/03/28,01:20,0.184,0.169,0.277,0.254,0.261,0.142,0.086,south-southwest,5.0,No
2020/03/28,01:30,0.183,0.169,0.275,0.255,0.259,0.142,0.086,south-southwest,5.6,No
2020/03/28,01:40,0.184,0.170,0.277,0.256,0.262,0.142,0.086,south-southwest,4.0,No
2020/03/28,01:50,0.184,0.169,0.276,0.254,0.259,0.142,0.086,south-southwest,4.4,No
2020/03/28,02:00,0.185,0.170,0.277,0.256,0.261,0.141,0.086,southwest,6.4,No
2020/03/28,02:10,0.184,0.169,0.276,0.253,0.260,0.142,0.086,southwest,6.6,No
2020/03/28,02:20,0.184,0.169,0.277,0.254,0.260,0.143,0.086,west-southwest,5.4,No
2020/03/28,02:30,0.185,0.170,0.276,0.253,0.258,0.142,0.086,southwest,4.9,No
2020/03/28,02:40,0.184,0.168,0.277,0.255,0.262,0.142,0.086,southwest,5.0,No
2020/03/28,02:50,0.184,0.169,0.278,0.252,0.259,0.142,0.087,southwest,5.5,No
2020/03/28,03:00,0.184,0.169,0.275,0.254,0.261,0.142,0.087,west-southwest,3.8,No
2020/03/28,03:10,0.184,0.168,0.278,0.252,0.260,0.143,0.086,west-southwest,4.5,No
2020/03/28,03:20,0.185,0.169,0.275,0.254,0.261,0.142,0.086,west-southwest,4.2,No
2020/03/28,03:30,0.185,0.169,0.277,0.252,0.258,0.142,0.086,west-southwest,4.1,No
2020/03/28,03:40,0.184,0.169,0.276,0.253,0.258,0.142,0.086,west-southwest,6.1,No
2020/03/28,03:50,0.184,0.170,0.277,0.254,0.260,0.142,0.086,west,3.9,No
2020/03/28,04:00,0.185,0.169,0.276,0.253,0.259,0.142,0.086,west,5.4,No
2020/03/28,04:10,0.183,0.169,0.276,0.253,0.261,0.143,0.086,west,6.5,No
2020/03/28,04:20,0.183,0.168,0.277,0.255,0.259,0.142,0.086,west,5.1,No
2020/03/28,04:30,0.184,0.171,0.277,0.253,0.261,0.142,0.086,west,6.4,No
2020/03/28,04:40,0.185,0.169,0.276,0.254,0.258,0.143,0.086,west,7.3,No
2020/03/28,04:50,0.184,0.169,0.277,0.253,0.262,0.142,0.087,west-northwest,5.0,No
2020/03/28,05:00,0.185,0.170,0.276,0.256,0.259,0.143,0.086,west-northwest,0.7,No
2020/03/28,05:10,0.184,0.169,0.276,0.253,0.262,0.142,0.085,southeast,0.9,No
2020/03/28,05:20,0.185,0.169,0.277,0.255,0.258,0.143,0.087,south-southwest,1.1,No
2020/03/28,05:30,0.185,0.170,0.278,0.253,0.261,0.143,0.086,east-southeast,2.4,No
2020/03/28,05:40,0.184,0.169,0.276,0.255,0.261,0.143,0.086,east,1.6,No
2020/03/28,05:50,0.185,0.169,0.278,0.253,0.261,0.142,0.086,east-northeast,1.2,No
2020/03/28,06:00,0.185,0.169,0.275,0.254,0.260,0.143,0.085,northeast,3.5,No
2020/03/28,06:10,0.184,0.169,0.277,0.254,0.262,0.142,0.086,northeast,2.2,No
2020/03/28,06:20,0.185,0.169,0.277,0.254,0.260,0.143,0.086,northwest,5.6,No
2020/03/28,06:30,0.185,0.170,0.277,0.254,0.262,0.143,0.087,west-northwest,8.2,No
2020/03/28,06:40,0.185,0.169,0.277,0.254,0.259,0.143,0.086,west-northwest,6.2,No
2020/03/28,06:50,0.184,0.170,0.279,0.254,0.263,0.142,0.086,west-northwest,7.0,No
2020/03/28,07:00,0.185,0.170,0.276,0.254,0.258,0.142,0.087,west-northwest,7.2,No
2020/03/28,07:10,0.185,0.169,0.278,0.256,0.261,0.143,0.086,northwest,5.1,No
2020/03/28,07:20,0.184,0.169,0.276,0.254,0.260,0.143,0.086,northwest,4.9,No
2020/03/28,07:30,0.184,0.169,0.278,0.254,0.260,0.142,0.087,north-northwest,4.7,No
2020/03/28,07:40,0.185,0.169,0.276,0.254,0.261,0.143,0.087,north,5.0,No
2020/03/28,07:50,0.184,0.168,0.277,0.255,0.259,0.141,0.086,north,7.9,No
2020/03/28,08:00,0.184,0.169,0.276,0.255,0.262,0.143,0.087,north-northeast,6.5,No
2020/03/28,08:10,0.186,0.169,0.279,0.253,0.259,0.143,0.086,northeast,6.8,No
2020/03/28,08:20,0.185,0.168,0.276,0.254,0.261,0.143,0.087,north-northeast,6.2,No
2020/03/28,08:30,0.185,0.170,0.279,0.255,0.260,0.142,0.087,north-northeast,7.6,No
2020/03/28,08:40,0.184,0.169,0.276,0.254,0.262,0.143,0.086,north,7.0,Yes
2020/03/28,08:50,0.185,0.169,0.277,0.256,0.260,0.142,0.086,north-northeast,8.6,Yes
2020/03/28,09:00,0.185,0.169,0.277,0.254,0.262,0.142,0.085,north-northeast,8.3,No
2020/03/28,09:10,0.184,0.169,0.278,0.253,0.260,0.142,0.087,north-northeast,6.6,No
2020/03/28,09:20,0.185,0.170,0.279,0.254,0.260,0.143,0.086,northeast,7.2,No
2020/03/28,09:30,0.185,0.169,0.277,0.255,0.262,0.142,0.087,north-northeast,6.6,No
2020/03/28,09:40,0.185,0.169,0.278,0.254,0.261,0.142,0.086,north,6.4,No
2020/03/28,09:50,0.183,0.170,0.277,0.254,0.261,0.141,0.086,north,6.1,No
2020/03/28,10:00,0.184,0.168,0.278,0.254,0.260,0.143,0.086,north,5.2,No
2020/03/28,10:10,0.184,0.169,0.279,0.254,0.260,0.142,0.086,north,5.5,No
2020/03/28,10:20,0.184,0.169,0.277,0.256,0.262,0.143,0.087,north,5.1,No
2020/03/28,10:30,0.185,0.169,0.278,0.255,0.259,0.142,0.086,north,5.0,No
2020/03/28,10:40,0.185,0.169,0.275,0.253,0.261,0.142,0.086,north-northeast,5.8,No
2020/03/28,10:50,0.185,0.170,0.278,0.255,0.258,0.141,0.086,northeast,6.4,No
2020/03/28,11:00,0.185,0.170,0.276,0.253,0.261,0.143,0.086,north-northeast,8.5,No
2020/03/28,11:10,0.184,0.169,0.277,0.254,0.260,0.143,0.085,north-northeast,6.8,No
2020/03/28,11:20,0.184,0.169,0.276,0.253,0.261,0.141,0.086,north,6.0,No
2020/03/28,11:30,0.185,0.169,0.279,0.254,0.258,0.143,0.086,north,5.7,No
2020/03/28,11:40,0.185,0.170,0.278,0.254,0.262,0.142,0.086,north,7.0,No
2020/03/28,11:50,0.185,0.169,0.277,0.255,0.261,0.142,0.086,north,8.1,No
2020/03/28,12:00,0.185,0.168,0.279,0.254,0.261,0.143,0.087,north,8.3,No
2020/03/28,12:10,0.186,0.170,0.278,0.255,0.259,0.141,0.086,north,7.9,No
2020/03/28,12:20,0.185,0.170,0.278,0.255,0.261,0.143,0.086,north,6.6,No
2020/03/28,12:30,0.184,0.169,0.276,0.254,0.261,0.142,0.086,north,6.4,No
2020/03/28,12:40,0.184,0.170,0.279,0.256,0.261,0.143,0.087,north,5.5,No
2020/03/28,12:50,0.185,0.169,0.278,0.254,0.260,0.142,0.086,north,7.6,No
2020/03/28,13:00,0.184,0.169,0.279,0.254,0.262,0.142,0.086,north,4.8,No
2020/03/28,13:10,0.185,0.170,0.280,0.256,0.259,0.143,0.086,north,6.5,No
2020/03/28,13:20,0.185,0.169,0.277,0.255,0.261,0.144,0.086,north,4.0,No
2020/03/28,13:30,0.186,0.171,0.279,0.255,0.261,0.142,0.086,north,5.3,No
2020/03/28,13:40,0.185,0.169,0.277,0.254,0.259,0.143,0.087,north,5.7,Yes
2020/03/28,13:50,0.185,0.169,0.279,0.257,0.262,0.143,0.087,north,6.3,Yes
2020/03/28,14:00,0.188,0.172,0.281,0.258,0.263,0.144,0.088,north,5.6,Yes
2020/03/28,14:10,0.188,0.173,0.281,0.258,0.264,0.146,0.089,north,6.6,Yes
2020/03/28,14:20,0.189,0.175,0.281,0.260,0.263,0.148,0.091,north,5.6,Yes
2020/03/28,14:30,0.191,0.176,0.283,0.260,0.266,0.152,0.095,north,6.8,Yes
2020/03/28,14:40,0.193,0.176,0.283,0.258,0.267,0.152,0.097,north,6.2,Yes
2020/03/28,14:50,0.191,0.177,0.282,0.260,0.267,0.153,0.098,north,6.2,Yes
2020/03/28,15:00,0.193,0.177,0.282,0.259,0.269,0.155,0.099,north,7.1,Yes
2020/03/28,15:10,0.193,0.178,0.283,0.259,0.268,0.154,0.099,north,6.9,Yes
2020/03/28,15:20,0.193,0.178,0.282,0.260,0.266,0.154,0.099,north,5.8,Yes
2020/03/28,15:30,0.192,0.177,0.279,0.259,0.266,0.152,0.098,north,5.5,Yes
2020/03/28,15:40,0.190,0.176,0.279,0.258,0.266,0.152,0.097,north,5.5,No
2020/03/28,15:50,0.189,0.173,0.278,0.255,0.263,0.150,0.094,north,4.9,Yes
2020/03/28,16:00,0.189,0.174,0.275,0.256,0.263,0.149,0.092,north-northeast,5.1,Yes
2020/03/28,16:10,0.189,0.174,0.275,0.254,0.264,0.148,0.093,northeast,3.2,Yes
2020/03/28,16:20,0.188,0.172,0.274,0.253,0.261,0.147,0.091,northeast,3.7,No
2020/03/28,16:30,0.187,0.171,0.273,0.252,0.260,0.145,0.090,north-northeast,2.2,No
2020/03/28,16:40,0.186,0.171,0.272,0.252,0.260,0.144,0.089,east-northeast,1.7,No
2020/03/28,16:50,0.186,0.170,0.273,0.250,0.259,0.144,0.089,east,1.3,No
2020/03/28,17:00,0.183,0.169,0.272,0.250,0.259,0.143,0.088,east,1.5,Yes
2020/03/28,17:10,0.184,0.169,0.270,0.249,0.258,0.143,0.087,east,2.2,Yes
2020/03/28,17:20,0.183,0.167,0.269,0.249,0.257,0.141,0.086,east,3.1,Yes
2020/03/28,17:30,0.184,0.167,0.268,0.249,0.258,0.140,0.086,east,3.0,No
2020/03/28,17:40,0.182,0.167,0.269,0.248,0.257,0.140,0.086,east,3.4,No
2020/03/28,17:50,0.182,0.167,0.270,0.247,0.256,0.140,0.085,east-northeast,3.5,No
2020/03/28,18:00,0.182,0.166,0.269,0.247,0.257,0.140,0.085,east-northeast,2.0,No
2020/03/28,18:10,0.181,0.167,0.269,0.248,0.256,0.140,0.085,northeast,2.7,Yes
2020/03/28,18:20,0.182,0.167,0.269,0.247,0.255,0.140,0.085,northeast,2.5,Yes
2020/03/28,18:30,0.182,0.166,0.269,0.247,0.257,0.140,0.085,north-northeast,1.6,Yes
2020/03/28,18:40,0.182,0.166,0.268,0.248,0.255,0.139,0.085,northeast,2.1,Yes
2020/03/28,18:50,0.183,0.167,0.270,0.247,0.257,0.141,0.086,east-northeast,1.1,Yes
2020/03/28,19:00,0.184,0.169,0.270,0.250,0.258,0.143,0.087,north,0.7,Yes
2020/03/28,19:10,0.185,0.171,0.271,0.251,0.259,0.145,0.089,west-northwest,1.3,Yes
2020/03/28,19:20,0.187,0.172,0.274,0.252,0.262,0.146,0.091,northwest,1.7,Yes
2020/03/28,19:30,0.187,0.171,0.273,0.251,0.261,0.147,0.091,north-northwest,1.7,Yes
2020/03/28,19:40,0.187,0.171,0.273,0.252,0.260,0.146,0.091,north,3.2,Yes
2020/03/28,19:50,0.186,0.171,0.272,0.251,0.261,0.145,0.091,north,3.6,Yes
2020/03/28,20:00,0.186,0.171,0.271,0.251,0.261,0.146,0.090,north,4.3,Yes
2020/03/28,20:10,0.187,0.170,0.271,0.251,0.260,0.144,0.090,north-northwest,4.0,Yes
2020/03/28,20:20,0.186,0.172,0.271,0.251,0.259,0.145,0.090,north-northwest,4.2,Yes
2020/03/28,20:30,0.188,0.173,0.272,0.251,0.262,0.148,0.092,north-northwest,4.2,Yes
2020/03/28,20:40,0.188,0.174,0.274,0.253,0.262,0.149,0.094,north-northwest,3.8,Yes
2020/03/28,20:50,0.189,0.174,0.273,0.252,0.263,0.149,0.094,north,4.6,Yes
2020/03/28,21:00,0.190,0.174,0.273,0.252,0.263,0.150,0.094,north,5.0,Yes
2020/03/28,21:10,0.190,0.174,0.274,0.253,0.263,0.150,0.095,north-northwest,6.4,Yes
2020/03/28,21:20,0.189,0.175,0.273,0.253,0.265,0.149,0.094,north-northwest,6.0,Yes
2020/03/28,21:30,0.189,0.174,0.272,0.253,0.262,0.150,0.094,north,6.3,Yes
2020/03/28,21:40,0.190,0.176,0.273,0.250,0.264,0.152,0.097,north-northeast,7.2,Yes
2020/03/28,21:50,0.190,0.175,0.274,0.253,0.264,0.152,0.097,north-northeast,7.6,Yes
2020/03/28,22:00,0.189,0.175,0.273,0.254,0.265,0.151,0.097,north-northeast,8.5,Yes
2020/03/28,22:10,0.190,0.176,0.273,0.253,0.264,0.152,0.097,north-northwest,8.8,Yes
2020/03/28,22:20,0.189,0.176,0.273,0.252,0.262,0.151,0.097,north-northwest,8.3,Yes
2020/03/28,22:30,0.190,0.175,0.274,0.253,0.264,0.150,0.097,northwest,8.1,Yes
2020/03/28,22:40,0.189,0.176,0.273,0.252,0.264,0.150,0.096,northwest,7.6,Yes
2020/03/28,22:50,0.189,0.174,0.273,0.251,0.264,0.149,0.096,north-northwest,7.5,Yes
2020/03/28,23:00,0.188,0.174,0.272,0.250,0.261,0.147,0.096,north-northwest,8.1,Yes
2020/03/28,23:10,0.187,0.172,0.271,0.249,0.262,0.148,0.094,north-northwest,6.8,Yes
2020/03/28,23:20,0.186,0.172,0.271,0.249,0.260,0.146,0.093,north-northwest,7.8,Yes
2020/03/28,23:30,0.186,0.171,0.269,0.247,0.261,0.146,0.092,north-northwest,7.1,Yes
2020/03/28,23:40,0.184,0.170,0.268,0.247,0.260,0.143,0.091,north-northwest,6.6,Yes
2020/03/28,23:50,0.184,0.169,0.269,0.247,0.258,0.144,0.090,north-northwest,5.8,Yes
